Flag for U.S.A. Weather past 2 weeks in Urbana, Illinois, U.S.A.

Now
64 °F

Mostly cloudy.


Feels Like: 64 °F
Forecast: 62 / 81 °F
Wind: 9 mph from Southeast

Location: University Of Illinois-Willard Airport

Current Time: May 5, 2015 at 12:14:36 AM

Latest Report: May 4, 2015 at 11:53 PM


Visibility: 10 mi

Pressure: 30.12 "Hg

Humidity: 84%

Dew point: 59 °F

Location of UrbanaLocation

Historic Weather in Urbana — Graph

°F

Urbana temperature yesterday

Maximum temperature yesterday: 82 °F (at 2:53 PM)
Minimum temperature yesterday: 60 °F (at 6:53 AM)
Average temperature yesterday: 68 °F

Past Weeks' High & Low Weather Summary

 TemperatureHumidityPressure
High84 °F (May 3, 2:55 PM)100% (Apr 19, 10:53 PM)30.18 "Hg (Apr 19, 10:53 PM)
Low30 °F (Apr 23, 5:53 AM)18% (Apr 23, 3:53 PM)29.36 "Hg (Apr 20, 2:53 AM)
Average54 °F57%29.93 "Hg
* Reported Apr 19 10:53 PM — May 4 10:53 PM, Urbana, Weather by CustomWeather, © 2015

Note: Actual official high and low records may vary slightly from our data, if they occured in-between our weather recording intervals... More about our weather records

Advertising

Urbana weather history for previous 24 hours

 ConditionsComfort  
Time TempWeatherWind HumidityBarometerVisibility
10:53 PM
Mon, May 4
65 °FMostly cloudy.9 mph85%30.12 "Hg9 mi
9:53 PM65 °FPassing clouds.10 mph87%30.12 "Hg9 mi
8:53 PM66 °FPassing clouds.7 mph84%30.12 "Hg9 mi
7:53 PM69 °FPartly sunny.12 mph76%30.11 "Hg10 mi
6:53 PM71 °FPassing clouds.12 mph76%30.09 "Hg7 mi
5:53 PM72 °FPartly sunny.12 mph76%30.10 "Hg7 mi
4:53 PM75 °FScattered clouds.13 mph69%30.09 "Hg9 mi
3:53 PM77 °FLight rain. Broken clouds.13 mph52%30.09 "Hg10 mi
2:53 PM82 °FBroken clouds.17 mph41%30.09 "Hg10 mi
1:53 PM80 °FScattered clouds.18 mph49%30.10 "Hg10 mi
12:53 PM79 °FSunny.15 mph52%30.10 "Hg10 mi
11:53 AM73 °FSunny.13 mph69%30.09 "Hg10 mi
10:53 AM70 °FSunny.16 mph76%30.10 "Hg9 mi
9:53 AM65 °FSunny.13 mph85%30.08 "Hg9 mi
8:53 AM63 °FOvercast.8 mph84%30.10 "Hg9 mi
7:53 AM61 °FLight rain. Overcast.5 mph83%30.09 "Hg10 mi
6:53 AM60 °FThundershowers. Mostly cloudy.6 mph80%30.08 "Hg9 mi
5:53 AM63 °FMostly cloudy.13 mph65%30.01 "Hg10 mi
4:53 AM62 °FMostly cloudy.13 mph70%29.98 "Hg10 mi
3:53 AM63 °FOvercast.14 mph65%29.98 "Hg10 mi
2:53 AM65 °FOvercast.16 mph54%29.99 "Hg10 mi
1:53 AM64 °FLight rain. Passing clouds.12 mph54%29.99 "Hg10 mi
12:53 AM65 °FClear.14 mph49%29.99 "Hg10 mi
Weather by CustomWeather, © 2015

See weather overviewHow to use our weather pages